Home > Weather > Augusta > Past weeks

Flag for U.S.A. Weather for the Past 2 Weeks in Augusta, Maine, U.S.A.

Now
34 °F

Sunny.


Feels Like: 29 °F
Forecast: 21 / 37 °F
Wind: 6 mph from North

Location: Augusta State Airport

Current Time: Feb 7, 2016 at 6:07:03 PM

Latest Report: Feb 7, 2016 at 4:53 PM


Visibility: 10 mi

Pressure: 30.15 "Hg

Humidity: 50%

Dew point: 17 °F

Location of AugustaLocation

Historic Weather in Augusta — Graph

°F

Augusta Temperature Yesterday

Maximum temperature yesterday: 34 °F (at 1:53 PM)
Minimum temperature yesterday: 15 °F (at 6:53 AM)
Average temperature yesterday: 26 °F

High & Low Weather Summary for the Past Weeks

 TemperatureHumidityPressure
High53 °F (Feb 1, 12:53 PM)100% (Feb 3, 4:53 PM)30.45 "Hg (Feb 3, 4:53 PM)
Low9 °F (Jan 24, 4:53 AM)30% (Jan 24, 2:53 PM)29.37 "Hg (Jan 29, 1:53 PM)
Average32 °F68%29.96 "Hg
* Reported Jan 23 4:53 PM — Feb 7 4:53 PM, Augusta, Weather by CustomWeather, © 2016

Note: Actual official high and low records may vary slightly from our data, if they occured in-between our weather recording intervals... More about our weather records

Advertising

Augusta Weather History for the Previous 24 Hours

 ConditionsComfort  
Time TempWeatherWind HumidityBarometerVisibility
4:53 PM
Sun, Feb 7
34 °FSunny.6 mph50%30.15 "Hg10 mi
3:53 PM36 °FSunny.12 mph50%30.16 "Hg10 mi
2:53 PM39 °FSunny.No wind50%30.16 "Hg10 mi
1:53 PM35 °FOvercast.3 mph64%30.17 "Hg10 mi
12:53 PM35 °FOvercast.No wind67%30.15 "Hg10 mi
11:53 AM37 °FOvercast.12 mph52%30.12 "Hg10 mi
10:53 AM38 °FPartly sunny.6 mph48%30.13 "Hg10 mi
9:53 AM36 °FSunny.7 mph52%30.11 "Hg10 mi
8:53 AM32 °FScattered clouds.5 mph61%30.10 "Hg10 mi
7:53 AM24 °FSunny.3 mph91%30.10 "Hg9 mi
6:53 AM25 °FPassing clouds.6 mph81%30.09 "Hg10 mi
5:53 AM24 °FClear.No wind84%30.09 "Hg10 mi
4:53 AM25 °FPartly cloudy.No wind85%30.09 "Hg10 mi
3:53 AM25 °FOvercast.No wind85%30.06 "Hg10 mi
2:53 AM24 °FClear.3 mph88%30.08 "Hg10 mi
1:53 AM23 °FClear.5 mph88%30.09 "Hg10 mi
12:53 AM25 °FClear.5 mph85%30.11 "Hg10 mi
11:53 PM
Sat, Feb 6
25 °FClear.5 mph85%30.13 "Hg10 mi
10:53 PM26 °FClear.5 mph84%30.14 "Hg10 mi
9:53 PM27 °FClear.7 mph81%30.16 "Hg10 mi
8:53 PM28 °FClear.5 mph81%30.18 "Hg10 mi
7:53 PM29 °FClear.9 mph82%30.19 "Hg10 mi
6:53 PM30 °FClear.10 mph79%30.19 "Hg10 mi
Weather by CustomWeather, © 2016

See weather overviewHow to use our weather pages